This is the latest recevied weather packets stored in our database for station/object CA3EVY-3. If no packets are shown the sender has not sent any weather packets the latest 10 day(s).
| Time | Temp. | Humidity | Pressure | Rain* | Wind** | Luminosity | Snow |
|---|---|---|---|---|---|---|---|
| 1777346104 | 16.67° C | 40% | 920.1 hPa | - | - | - | - |
| 1777345205 | 16.67° C | 41% | 920.8 hPa | - | - | - | - |
| 1777344304 | 16.67° C | 41% | 920.8 hPa | - | - | - | - |
| 1777343404 | 16.67° C | 42% | 920.6 hPa | - | - | - | - |
| 1777342504 | 16.67° C | 42% | 920.5 hPa | - | - | - | - |
| 1777341604 | 16.11° C | 41% | 921 hPa | - | - | - | - |
| 1777340704 | 16.11° C | 41% | 921.1 hPa | - | - | - | - |
| 1777339804 | 16.11° C | 40% | 921.1 hPa | - | - | - | - |
| 1777338904 | 16.11° C | 40% | 921.1 hPa | - | - | - | - |
| 1777338005 | 15.56° C | 39% | 920.9 hPa | - | - | - | - |
| 1777337104 | 15.56° C | 39% | 921.2 hPa | - | - | - | - |
| 1777336203 | 16.11° C | 40% | 920.5 hPa | - | - | - | - |
| 1777335303 | 16.11° C | 40% | 920.6 hPa | - | - | - | - |
| 1777334403 | 16.11° C | 38% | 920.5 hPa | - | - | - | - |
| 1777333504 | 16.11° C | 38% | 920.5 hPa | - | - | - | - |
| 1777332604 | 16.67° C | 39% | 920.3 hPa | - | - | - | - |
| 1777331705 | 16.67° C | 39% | 920.1 hPa | - | - | - | - |
| 1777330804 | 16.67° C | 39% | 920 hPa | - | - | - | - |
| 1777329904 | 16.67° C | 39% | 919.8 hPa | - | - | - | - |
| 1777329004 | 16.67° C | 38% | 919.8 hPa | - | - | - | - |
| 1777328103 | 16.67° C | 38% | 920 hPa | - | - | - | - |
| 1777327204 | 17.22° C | 36% | 919.8 hPa | - | - | - | - |
| 1777326303 | 17.22° C | 36% | 919.5 hPa | - | - | - | - |
| 1777325403 | 17.78° C | 35% | 919.7 hPa | - | - | - | - |
| 1777324504 | 17.78° C | 35% | 919.6 hPa | - | - | - | - |
* Rain since midnight (hover to see other rain measurements)
** Current wind speed in m/s (hover to see current wind gust speed)